When you browse on this site, cookies collect data to enhance your experience and personalize the content and advertising you see.
Visit our Privacy Policy to learn more. By continuing to use the site, you agree to this use of cookies and data.
  • In Romania
  • List of Countries
  • For 7 days
  • Water Temperature
  • Satellite Maps
  • Weather Map
  • Weather Widgets
  • user-avatar
    Login

    Hourly Weather Smolan

    Today, 19 June, Wednesday

    Time Temperature Precipitation Wind Pressure Humidity
    00:00 +13°C° 0.2 mm 1 mps 655 mmHg 90%
    01:00 +14°C° 0.2 mm 1 mps 655 mmHg 89%
    02:00 +14°C° 0 mm 1 mps 655 mmHg 85%
    03:00 +13°C° 0 mm 1 mps 655 mmHg 85%
    04:00 +13°C° 0 mm 1 mps 654 mmHg 86%
    05:00 +13°C° 0 mm 1 mps 654 mmHg 86%
    06:00 +15°C° 0 mm 1 mps 655 mmHg 80%
    07:00 +18°C° 0 mm 1 mps 656 mmHg 74%
    08:00 +20°C° 0 mm 1 mps 656 mmHg 66%
    09:00 +20°C° 0.3 mm 2 mps 656 mmHg 65%
    10:00 +20°C° 0.3 mm 2 mps 656 mmHg 65%
    11:00 +21°C° 0.3 mm 2 mps 657 mmHg 65%
    12:00 +21°C° 0.7 mm 2 mps 656 mmHg 64%
    13:00 +21°C° 0.7 mm 2 mps 656 mmHg 64%
    14:00 +21°C° 0 mm 2 mps 656 mmHg 67%
    15:00 +20°C° 0.7 mm 2 mps 656 mmHg 65%
    16:00 +20°C° 0.7 mm 2 mps 655 mmHg 64%
    17:00 +21°C° 0.7 mm 1 mps 655 mmHg 62%
    18:00 +19°C° 0.1 mm 1 mps 655 mmHg 71%
    19:00 +16°C° 0.1 mm 1 mps 654 mmHg 80%
    20:00 +13°C° 0.1 mm 0 mps 653 mmHg 89%
    21:00 +13°C° 0 mm 1 mps 653 mmHg 90%
    22:00 +13°C° 0 mm 1 mps 653 mmHg 90%
    23:00 +12°C° 0 mm 1 mps 653 mmHg 90%

    Tomorrow, 20 June, Thursday

    Time Temperature Precipitation Wind Pressure Humidity
    00:00 +12°C° 0 mm 1 mps 653 mmHg 89%
    01:00 +12°C° 0 mm 1 mps 653 mmHg 87%
    02:00 +12°C° 0 mm 1 mps 653 mmHg 86%
    03:00 +12°C° 0 mm 1 mps 653 mmHg 84%
    04:00 +11°C° 0 mm 1 mps 653 mmHg 82%
    05:00 +11°C° 0 mm 1 mps 653 mmHg 80%
    06:00 +14°C° 0 mm 1 mps 654 mmHg 72%
    07:00 +18°C° 0 mm 1 mps 655 mmHg 64%
    08:00 +18°C° 0 mm 0 mps 656 mmHg 56%
    09:00 +22°C° 0 mm 1 mps 656 mmHg 51%
    10:00 +23°C° 0 mm 1 mps 656 mmHg 47%
    11:00 +24°C° 0 mm 2 mps 656 mmHg 42%
    12:00 +24°C° 0 mm 2 mps 656 mmHg 46%
    13:00 +23°C° 0 mm 2 mps 656 mmHg 49%
    14:00 +23°C° 0 mm 2 mps 656 mmHg 53%
    15:00 +21°C° 0.2 mm 2 mps 655 mmHg 58%
    16:00 +22°C° 0.2 mm 1 mps 655 mmHg 63%
    17:00 +19°C° 0.2 mm 0 mps 655 mmHg 68%
    18:00 +17°C° 0.1 mm 0 mps 654 mmHg 73%
    19:00 +16°C° 0.1 mm 0 mps 654 mmHg 79%
    20:00 +14°C° 0.1 mm 0 mps 653 mmHg 84%
    21:00 +14°C° 0 mm 1 mps 653 mmHg 84%
    22:00 +14°C° 0 mm 1 mps 654 mmHg 85%
    23:00 +13°C° 0 mm 1 mps 654 mmHg 86%

    Day after tomorrow, 21 June, Friday

    Time Temperature Precipitation Wind Pressure Humidity
    00:00 +13°C° 0 mm 1 mps 654 mmHg 85%
    01:00 +13°C° 0 mm 1 mps 653 mmHg 84%
    02:00 +13°C° 0 mm 1 mps 653 mmHg 84%
    03:00 +13°C° 0 mm 1 mps 653 mmHg 84%
    04:00 +12°C° 0 mm 1 mps 653 mmHg 84%
    05:00 +12°C° 0 mm 1 mps 653 mmHg 84%
    06:00 +15°C° 0 mm 1 mps 654 mmHg 78%
    07:00 +18°C° 0 mm 1 mps 655 mmHg 71%
    08:00 +19°C° 0 mm 0 mps 656 mmHg 64%
    09:00 +22°C° 0.1 mm 1 mps 657 mmHg 60%
    10:00 +23°C° 0.1 mm 1 mps 657 mmHg 56%
    11:00 +24°C° 0.1 mm 2 mps 657 mmHg 52%
    12:00 +23°C° 0.6 mm 1 mps 657 mmHg 60%
    13:00 +22°C° 0.6 mm 1 mps 656 mmHg 68%
    14:00 +21°C° 0.6 mm 1 mps 656 mmHg 76%
    15:00 +21°C° 1 mm 1 mps 656 mmHg 76%
    16:00 +21°C° 1 mm 1 mps 656 mmHg 75%
    17:00 +21°C° 1 mm 1 mps 655 mmHg 75%
    18:00 +20°C° 0.3 mm 1 mps 655 mmHg 80%
    19:00 +18°C° 0.3 mm 1 mps 655 mmHg 85%
    20:00 +14°C° 0.3 mm 0 mps 654 mmHg 90%
    21:00 +15°C° 0 mm 1 mps 654 mmHg 91%
    22:00 +14°C° 0 mm 1 mps 655 mmHg 91%
    23:00 +14°C° 0 mm 1 mps 655 mmHg 92%

    22 June, Saturday

    Time Temperature Precipitation Wind Pressure Humidity
    00:00 +14°C° 0 mm 1 mps 655 mmHg 92%
    01:00 +13°C° 0 mm 1 mps 655 mmHg 92%
    02:00 +13°C° 0 mm 1 mps 654 mmHg 93%
    03:00 +13°C° 0 mm 1 mps 654 mmHg 93%
    04:00 +13°C° 0 mm 1 mps 654 mmHg 93%
    05:00 +13°C° 0 mm 1 mps 654 mmHg 93%
    06:00 +15°C° 0 mm 1 mps 655 mmHg 87%
    07:00 +18°C° 0 mm 1 mps 656 mmHg 80%
    08:00 +20°C° 0 mm 1 mps 657 mmHg 74%
    09:00 +21°C° 0.5 mm 1 mps 657 mmHg 73%
    10:00 +22°C° 0.5 mm 1 mps 658 mmHg 72%
    11:00 +22°C° 0.5 mm 1 mps 658 mmHg 72%
    12:00 +22°C° 1.4 mm 1 mps 658 mmHg 72%
    13:00 +23°C° 1.4 mm 1 mps 657 mmHg 73%
    14:00 +23°C° 1.4 mm 1 mps 657 mmHg 73%
    15:00 +22°C° 1.2 mm 1 mps 657 mmHg 74%
    16:00 +20°C° 1.2 mm 0 mps 657 mmHg 74%
    17:00 +20°C° 1.2 mm 0 mps 656 mmHg 74%
    18:00 +18°C° 0.4 mm 0 mps 656 mmHg 78%
    19:00 +17°C° 0.4 mm 0 mps 656 mmHg 82%
    20:00 +15°C° 0.4 mm 0 mps 655 mmHg 86%
    21:00 +16°C° 0 mm 1 mps 655 mmHg 86%
    22:00 +15°C° 0 mm 1 mps 655 mmHg 87%
    23:00 +15°C° 0 mm 1 mps 655 mmHg 87%

    23 June, Sunday

    Time Temperature Precipitation Wind Pressure Humidity
    00:00 +14°C° 0 mm 1 mps 655 mmHg 87%
    01:00 +14°C° 0 mm 1 mps 655 mmHg 87%
    02:00 +14°C° 0 mm 1 mps 654 mmHg 86%
    03:00 +14°C° 0 mm 1 mps 654 mmHg 86%
    04:00 +14°C° 0 mm 1 mps 654 mmHg 87%
    05:00 +14°C° 0 mm 1 mps 654 mmHg 87%
    06:00 +16°C° 0 mm 1 mps 655 mmHg 82%
    07:00 +19°C° 0 mm 1 mps 656 mmHg 78%
    08:00 +21°C° 0 mm 1 mps 656 mmHg 73%
    09:00 +22°C° 0.3 mm 1 mps 657 mmHg 70%
    10:00 +24°C° 0.3 mm 1 mps 657 mmHg 66%
    11:00 +25°C° 0.3 mm 2 mps 657 mmHg 62%
    12:00 +25°C° 1 mm 2 mps 657 mmHg 63%
    13:00 +24°C° 1 mm 2 mps 657 mmHg 64%
    14:00 +24°C° 1 mm 2 mps 656 mmHg 65%
    15:00 +24°C° 1.6 mm 2 mps 656 mmHg 70%
    16:00 +23°C° 1.6 mm 1 mps 655 mmHg 75%
    17:00 +22°C° 1.6 mm 1 mps 655 mmHg 81%
    18:00 +21°C° 1.1 mm 1 mps 654 mmHg 83%
    19:00 +19°C° 1.1 mm 1 mps 654 mmHg 86%
    20:00 +16°C° 1.1 mm 1 mps 653 mmHg 88%
    21:00 +16°C° 0.2 mm 1 mps 653 mmHg 88%
    22:00 +15°C° 0.2 mm 1 mps 654 mmHg 89%
    23:00 +15°C° 0.2 mm 1 mps 654 mmHg 89%

    24 June, Monday

    Time Temperature Precipitation Wind Pressure Humidity
    00:00 +15°C° 0.4 mm 1 mps 654 mmHg 89%
    01:00 +15°C° 0.4 mm 1 mps 654 mmHg 89%
    02:00 +14°C° 0.4 mm 1 mps 654 mmHg 89%
    03:00 +14°C° 0.5 mm 1 mps 654 mmHg 90%
    04:00 +14°C° 0.5 mm 1 mps 654 mmHg 91%
    05:00 +13°C° 0.5 mm 1 mps 653 mmHg 93%
    06:00 +15°C° 0.8 mm 1 mps 654 mmHg 91%
    07:00 +16°C° 0.8 mm 1 mps 655 mmHg 89%
    08:00 +19°C° 0.8 mm 1 mps 656 mmHg 88%
    09:00 +19°C° 1.3 mm 1 mps 656 mmHg 87%
    10:00 +19°C° 1.3 mm 1 mps 656 mmHg 86%
    11:00 +20°C° 1.3 mm 1 mps 656 mmHg 85%
    12:00 +20°C° 1.1 mm 1 mps 656 mmHg 85%
    13:00 +19°C° 1.1 mm 1 mps 656 mmHg 86%
    14:00 +19°C° 1.1 mm 1 mps 656 mmHg 87%
    15:00 +19°C° 0.9 mm 1 mps 656 mmHg 88%
    16:00 +18°C° 0.9 mm 1 mps 656 mmHg 90%
    17:00 +18°C° 0.9 mm 1 mps 655 mmHg 91%
    18:00 +16°C° 0.2 mm 1 mps 655 mmHg 90%
    19:00 +15°C° 0.2 mm 1 mps 655 mmHg 89%
    20:00 +15°C° 0.2 mm 1 mps 655 mmHg 89%
    21:00 +15°C° 0 mm 1 mps 655 mmHg 89%
    22:00 +14°C° 0 mm 2 mps 656 mmHg 89%
    23:00 +14°C° 0 mm 2 mps 656 mmHg 89%
    Show more